User: anonymous   Login
Location: Unspecified
(0.0000°N, 0.0000°E)
Time: 10:34:25
(UTC+00:00)
Language:

Lacrosse 5 - Orbit

View from above orbital plane
View from above orbital plane
View from above satellite
View from above satellite

Ground track
Ground track

The orbit data is extracted from the following two-line orbital elements,

1 28646U 05016A   18191.88313013 0.00000000  00000-0  00000-0 0    08
2 28646  57.0060 116.0398 0007000 147.0742 212.9257 14.51905982    08
Epoch (UTC): 10 July 2018 21:11:42
Eccentricity: 0.0007000
inclination: 57.0060°
perigee height: 714 km
apogee height: 724 km
right ascension of ascending node: 116.0398°
argument of perigee: 147.0742°
revolutions per day: 14.51905982
mean anomaly at epoch: 212.9257°
orbit number at epoch: 0

The dashed part of the orbit path shows where the satellite is in the earth's shadow,  

DLR